Weather in Maysky

Russia / Belgorod Oblast     50°31′18″N   36°27′15″E
В апреле 2022 года жителям России запретили посещать сайт meteo.paraplan.net по решению Генеральной прокуратуры. Аудитория сайта уменьшилась в 10 раз. Владельцы сайта не видят смысла в поддержке погодного сервера в таких условиях. Сайт будет закрыт в октябре.
temp.,
°C
wind,
m/s
gust,
m/s
humid.,
%
clouds,
%
prec.,
mm/h
press.,
hPa
HPBL,
m
30 september, fri
fri3000:00+12se349199 0.0 101568
03:00+13sse3589100 0.0 101595
06:00+14sse3685100 0.4 1015126
09:00+16sse497197 0.4 1015304
12:00+21ssw7105677 0.1 10161040
15:00+23ssw694817 0.1 10151673
18:00+17s367896 0.9 1016113
21:00+16s3789100 4.3 1016150
1 october, sat
sat100:00+15sse3795100 3.5 1016168
03:00+15ssw3793100 4.1 1016150
06:00+14sw34935 0.0 101760
09:00+17sw46825 0.0 1016260
12:00+21sw566431 0.0 1016798
15:00+23sw6852100 0.0 10151194
18:00+19sw3771100 0.0 1014135
21:00+17w397894 0.0 1015224
2 october, sun
sun200:00+15w228340 0.0 101426
03:00+14s1179100 0.0 101310
06:00+14e2281100 0.0 101115
09:00+15ese3686100 1.1 1009203
12:00+21ssw71068100 0.5 10081042
15:00+18ssw61479100 2.1 1006794
18:00+15sse41195100 1.4 1003462
21:00+15s71492100 3.7 1000869
3 october, mon
mon300:00+15wsw5893100 5.7 998471
03:00+11wnw71191100 6.3 999665
06:00+10wnw71187100 0.0 1000780
09:00+10w6983100 0.1 1002863
12:00+11w5775100 0.1 1005970
15:00+11w5873100 0.3 10071061
18:00+10w377285 0.0 1009640
21:00+8ssw368923 0.1 1011123
4 october, tue
tue400:00+7sw37895 0.0 1012144
03:00+6sw349249 0.0 101369
06:00+7ssw389213 0.0 1014172
09:00+10ssw4784100 0.0 1015311
12:00+14sw576332 0.1 10151139
15:00+14sw6756100 0.2 10161288
18:00+11sw4870100 0.1 1017369
21:00+10ssw498595 0.9 1018420